Regional Weather Roundup
Issued by NWS

Home | Current Version | Previous Version | Text Only | Print | Product List | Glossary Off
Versions: 1 2 3 4 5 6 7 8 9 10 11 12 13 14 15 16 17 18 19 20 21 22 23 24 25 26 27 28 29 30 31 32 33 34 35 36 37 38 39 40 41 42 43 44 45 46 47 48 49 50

000
ASUS45 KSLC 011210
RWRUT

UTAH REGIONAL WEATHER ROUNDUP
NATIONAL WEATHER SERVICE SALT LAKE CITY UT
500 AM MST SUN MAR 01 2015

UTZ001>011-023>025-011300-

NORTHERN UTAH

CITY           SKY/WX    TMP DP  RH WIND       PRES   REMARKS
BRIGHAM CITY   CLEAR     28  18  64 NW6       30.04R WCI  22
HILL AFB       PTCLDY    30  21  68 E13       30.00R WCI  20
LOGAN          CLEAR     23  15  71 CALM      30.06R
OGDEN          MOCLDY    31  21  66 NE3       30.01R
PROVO AIRPORT  MOCLDY    34  30  86 CALM      30.01R
SALT LAKE CITY MOCLDY    33  31  92 CALM      30.01R
VERNAL         CLOUDY    31  23  72 NE8       30.02R WCI  23
WENDOVER       CLOUDY    36  18  48 NE13      30.02R WCI  27
HEBER CITY     LGT SNOW  21  21 100 CALM      30.01R
WEST JORDAN    CLOUDY    30  30 100 CALM      30.01R

$$

UTZ012>022-026-027-011300-

SOUTHERN/CENTRAL UTAH

CITY           SKY/WX    TMP DP  RH WIND       PRES   REMARKS
BLANDING       CLOUDY    30  29  97 N8        30.07R WCI  23
BRYCE CANYON   MOCLDY    19  17  92 N9        29.95R WCI   8
CEDAR CITY     PTCLDY    22  19  89 N8        29.93F WCI  12
DELTA          CLOUDY    33  33 100 CALM      29.99R
HANKSVILLE     MOCLDY    30  30 100 CALM      30.03R
MILFORD        PTCLDY    27  24  89 W8        29.98R WCI  19
MOAB/CYNLANDS  PTCLDY    25  25 100 SW3       29.99R
PRICE          CLOUDY    32  29  88 CALM      29.98R
ST GEORGE      MOSUNNY   41  34  75 SE6       29.97S
KANAB          CLOUDY    32  32 100 CALM      30.01R

$$

REGIONAL REPORTS     COLORADO/ARIZONA

CITY           SKY/WX    TMP DP  RH WIND       PRES   REMARKS
CRAIG, CO      CLOUDY    19  16  88 CALM      30.05R
GRAND JUNCTION CLOUDY    31  29  92 SE5       30.01R WCI  26
RIFLE          CLOUDY    30  26  85 E3        30.01R
MONTROSE       CLOUDY    28  27  96 SE8       30.04R WCI  20
CORTEZ         LGT SNOW  30  29  96 E7        30.02R FOG     WCI  23
PAGE, AZ       CLOUDY    39  33  79 NW3       29.98R
GRAND CANYON   MIX PCPN  35  31  85 S5        29.96R WCI  31
KINGMAN        CLOUDY    50  35  56 S13       29.90R
FLAGSTAFF      SNOW      33  31  92 VRB6      29.96R VSB 1/2 WCI  28

$$

REGIONAL REPORTS    NEVADA/IDAHO/WYOMING

CITY           SKY/WX    TMP DP  RH WIND       PRES   REMARKS
LAS VEGAS, NV  MOCLDY    50  33  52 S5        29.87R
ELY            LGT SNOW  27  26  96 N7        29.96R FOG     WCI  19
ELKO           CLOUDY    28  21  75 W3        29.99R
POCATELLO, ID  CLEAR     17   6  62 NE7       30.13R WCI   8
BURLEY         CLEAR     23   8  52 E9        30.11R WCI  13
EVANSTON, WY   CLOUDY    19  15  84 E8        30.00R WCI   9
ROCK SPRINGS   MOCLDY     9   4  80 E6        30.07R WCI  -1

$$



USA.gov is the U.S. government's official web portal to all federal, state and local government web resources and services.